TimePDT,TemperatureF,Dew PointF,Humidity,Sea Level PressureIn,VisibilityMPH,Wind Direction,Wind SpeedMPH,Gust SpeedMPH,PrecipitationIn,Events,Conditions,WindDirDegrees,DateUTC
12:53 AM,50.0,45.0,83,29.82,10.0,Variable,5.8,-,0.00,,Overcast,0,2012-10-20 07:53:00
1:05 AM,50.0,44.6,82,29.81,10.0,Variable,6.9,-,N/A,,Mostly Cloudy,0,2012-10-20 08:05:00
1:16 AM,50.0,44.6,82,29.82,10.0,South,9.2,-,N/A,,Overcast,170,2012-10-20 08:16:00
1:49 AM,48.2,42.8,82,29.81,10.0,SSE,9.2,20.7,N/A,,Partly Cloudy,160,2012-10-20 08:49:00
1:53 AM,48.9,43.0,80,29.83,10.0,SSE,11.5,-,N/A,,Partly Cloudy,160,2012-10-20 08:53:00
2:53 AM,46.9,42.1,83,29.85,10.0,East,4.6,-,N/A,,Scattered Clouds,80,2012-10-20 09:53:00
3:14 AM,46.4,42.8,87,29.84,10.0,ESE,4.6,-,N/A,,Mostly Cloudy,110,2012-10-20 10:14:00
3:26 AM,46.4,42.8,87,29.84,10.0,SE,3.5,-,N/A,,Mostly Cloudy,130,2012-10-20 10:26:00
3:53 AM,46.9,41.0,80,29.86,10.0,SSE,4.6,-,N/A,,Scattered Clouds,150,2012-10-20 10:53:00
4:53 AM,45.0,39.9,82,29.86,10.0,East,5.8,-,N/A,,Partly Cloudy,90,2012-10-20 11:53:00
5:53 AM,45.0,41.0,86,29.86,10.0,South,6.9,-,N/A,,Clear,180,2012-10-20 12:53:00
6:53 AM,46.0,39.9,79,29.88,10.0,SSE,9.2,-,N/A,,Partly Cloudy,150,2012-10-20 13:53:00
7:53 AM,45.0,37.0,74,29.88,10.0,South,11.5,20.7,N/A,,Overcast,170,2012-10-20 14:53:00
8:53 AM,45.0,39.0,80,29.89,10.0,SSE,8.1,-,N/A,,Scattered Clouds,160,2012-10-20 15:53:00
9:53 AM,46.0,39.0,76,29.91,10.0,South,8.1,-,N/A,,Scattered Clouds,170,2012-10-20 16:53:00
10:22 AM,46.4,39.2,76,29.88,10.0,SSE,6.9,-,N/A,,Mostly Cloudy,150,2012-10-20 17:22:00
10:53 AM,48.0,39.0,71,29.91,10.0,SE,8.1,-,N/A,,Mostly Cloudy,140,2012-10-20 17:53:00
11:53 AM,48.0,39.0,71,29.92,10.0,SE,10.4,16.1,N/A,,Overcast,140,2012-10-20 18:53:00
12:53 PM,48.9,39.0,69,29.91,10.0,SSE,10.4,-,N/A,,Overcast,160,2012-10-20 19:53:00
1:53 PM,51.1,37.0,59,29.90,10.0,South,11.5,-,N/A,,Overcast,190,2012-10-20 20:53:00
2:48 PM,51.8,39.2,62,29.86,10.0,Calm,Calm,-,0.00,Rain,Light Rain,0,2012-10-20 21:48:00
2:53 PM,51.1,37.9,61,29.88,10.0,South,10.4,16.1,0.00,,Overcast,170,2012-10-20 21:53:00
3:19 PM,44.6,39.2,81,29.89,2.5,WNW,11.5,28.8,0.03,Rain,Heavy Rain,300,2012-10-20 22:19:00
3:27 PM,44.6,39.2,81,29.88,3.0,Variable,4.6,-,0.04,Rain,Light Rain,0,2012-10-20 22:27:00
3:53 PM,46.0,42.1,86,29.90,10.0,East,6.9,-,0.04,,Overcast,100,2012-10-20 22:53:00
4:53 PM,46.9,41.0,80,29.88,10.0,SE,11.5,18.4,0.01,,Partly Cloudy,140,2012-10-20 23:53:00
5:53 PM,46.0,39.9,79,29.89,10.0,SE,5.8,-,N/A,,Mostly Cloudy,130,2012-10-21 00:53:00
6:53 PM,45.0,37.9,76,29.89,10.0,SSE,5.8,-,N/A,,Overcast,160,2012-10-21 01:53:00
7:53 PM,45.0,39.0,80,29.88,10.0,SE,4.6,-,N/A,,Overcast,130,2012-10-21 02:53:00
8:53 PM,46.0,37.9,73,29.88,10.0,SE,4.6,-,N/A,,Mostly Cloudy,140,2012-10-21 03:53:00
9:53 PM,45.0,39.0,80,29.89,10.0,Variable,3.5,-,N/A,,Mostly Cloudy,0,2012-10-21 04:53:00
10:53 PM,44.1,37.9,79,29.89,10.0,SE,3.5,-,N/A,,Partly Cloudy,130,2012-10-21 05:53:00
11:53 PM,44.1,37.9,79,29.88,10.0,Calm,Calm,-,N/A,,Partly Cloudy,0,2012-10-21 06:53:00